LiveATC.Net - Listen to live air traffic control over the Internet!


ICAO: KMSN  IATA: MSN   Airport: Dane County Regional Airport-Truax Field
City: Madison   State/Province: Wisconsin
Country: United States   Continent: North America
KMSN METAR Weather: KMSN 261453Z 00000KT 10SM FEW035 27/19 A3008 RMK AO2 SLP180 T02720189 50000
KMSN Flight Activity (FlightAware)
KMSN Airport Info   (AirNav) (iFlightPlanner)
KMSN VFR Sectional Chart   (iFlightPlanner) 
KMSN IFR Low Chart   (iFlightPlanner) 
KMSN Twr/App
Feed Status: DOWN
Last heard on: 2016-07-26 15:18:03 (0 days 0 hours 41 minutes ago)
KMSN Twr/App Audio Archives
FacilityFrequency
Emergency / GUARD121.500
Madison Approach (East)120.100
Madison Approach (West)135.450
Madison Tower119.300

Sponsored by: Wisconsin Aviation

NOTICE

Unauthorized use prohibited. See LiveATC.net Terms of Service


Find LiveATC Audio Streams


Airport/ARTCC Code

Frequency
(e.g., 124.400, 128.75)
Site-wide search

Browse LiveATC Feeds
LiveATC Coverage Map
Top 50 LiveATC Feeds
Bad Weather Areas

LiveATC FAQ
Offer a LiveATC Feed
Contact LiveATC.net
Press Inquiries

LiveATC on iPhone
LiveATC on Android

Windows Phone
Windows 8/10

LiveATC Mobile
(Mobile browser)

ATC Audio Archives
Interesting Recordings

LiveATC Forums


Home Page
About LiveATC.net
Make a Donation
LiveATC Store

Terms of Use
Privacy Policy

Canadian Air Freqs

AIRMETs/SIGMETs

FAA Airport Status
Nat'l Airspace Status
Arrival Demand Charts


Server Software By:
Icecast.org
Liquidsoap